Voltar ao catálogo

DELTA 1 DEB

LostSSO
NORAD 13825·DEBRIS·🇺🇸 United States

Lançado Mar 5, 1978 de Vandenberg Space Force Base

Loading…

Próximas Passagens (próximas 24 horas)

TLE

ObsoletoSource: Space-Track

Época: Jul 18, 2020, 04:09 UTC

1 13825U 78026FU  20200.17319329  .00000165  00000-0  82946-4 0  9996
2 13825  98.9326 286.1491 0137662 346.1215  13.6765 14.24487201929827

Acompanhe DELTA 1 DEB em tempo real com AllMySat

Download on the App Store